BREEZE-M DEB (TANK), 36103

Orbit data source: Space-Track

BREEZE-M DEB (TANK), 36103 is space debris in HEO originally from a launch on Tue, 24 Nov 2009 UTC launched from the Tyuratam Missile And Space Complex (TTMTR). Debris objects in space refer to the collection of defunct objects orbiting the Earth. Examples of debris include non-operational satellites, rocket bodies, and fragments generated from explosions, collisions, or faulty payload assembly.

Loading next visibility...
Identifier
36103, 2009-065C
Orbit
HEO
Country
Flag of CISCIS
Related business
Manufacturer
Khrunichev
Mission
Spacecraft
Bus & Motor
BRIZ TANK, Unknown motor
Mass
~1,000 kg wet, 1,000 kg dry
Launch date (UTC)
2009-11-24 (16 years ago)
Launch vehicle
Unknown
Launch site
Tyuratam Missile And Space Complex (TTMTR)
Object type
Payload
Rocket body
Debris
Shape & HBR
Torus, 2.0 m
Radar Cross Section
8.218 m², Large (>1 m²)

Expand to show TLE details & history
Last TLE update: 3 days ago

TLE from 3 days ago
0 BREEZE-M DEB (TANK)
1 36103U 09065C   26124.20009819  .00003765  00000-0  54756-3 0  9998
2 36103  49.3610  84.3995 5226401 280.2996  27.1780  5.26014190305777
Epoch: 2026-05-04T04:48Z
TLE epoch observation values (Epoch: 2026-05-04T04:48:08.483Z)
Latitude
0.00011°
Longitude
150.25053°
Altitude
2,911.613 km
Speed
7.569 km/s
True Right ascension
05h 37m 30s
True Declination
0° 00' 00"
Sunlit
Object was in daylight at epoch
Visualization orbit readout
Latitude
Unknown
Longitude
Unknown
Altitude
Unknown
Speed
Unknown
Apparent Right ascension
Unknown
Apparent Declination
Unknown
Sunlit
N/A
Visualization observer readout
Local Sidereal Time
00:15:59
Azimuth
Unknown
Elevation
Unknown
Doppler factor
Unknown
Orbital elements
Apogee altitude
14,888.034 km
Perigee altitude
288.978 km
Semi-major axis
13,966.643 km
Eccentricity
0.52264
Inclination
49.361°
RAAN
84.3995°
Arg. of periapsis
280.2996°
True anomaly
79.80232°
Mean anomaly
27.178°
Eccentric anomaly
50.17641°
Mean motion
1.31494 °/min
Orbital period
273.78 mins
BSTAR
0.00054756
Loading maneuver chart data...
Computing Atmospheric mass density...
Loading historical data...
Loading historical data...
Loading historical data...
Loading historical data...
Loading historical data...
Loading historical data...
Loading historical data...
Other satellites on launch #65 in the year 2009 (2009-11-24 UTC)

Documentation

Showing up to 5 results
|